Location: Iesi
(43.5167°N, 13.2333°E)
Time: 19:22:12
(UTC+00:00)

Cosmos 540 Rocket - Pass Details

Date: 08 August 2020
Orbit: 740 x 754 km, 74.1° (Epoch: 24 September)

Event Time Altitude Azimuth Distance (km) Brightness Sun altitude
Rises 21:35:55 0° 342° (NNW) 3,210 8.0 -26.7°
Reaches altitude 10° 21:38:19 10° 345° (NNW) 2,283 6.9 -26.9°
Enters shadow 21:43:12 63° 49° (NE) 839 3.6 -27.2°
